Regional Weather Roundup
Issued by NWS State College, PA

Home | Current Version | Previous Version | Graphics & Text | Print | Product List | Glossary Off
Versions: 1 2 3 4 5 6 7 8 9 10 11 12 13 14 15 16 17 18 19 20 21 22 23 24 25 26 27 28 29 30 31 32 33 34 35 36 37 38 39 40 41 42 43 44 45 46 47 48 49 50

000
ASUS41 KCTP 182210
RWRCTP

REGIONAL WEATHER ROUNDUP
NATIONAL WEATHER SERVICE STATE COLLEGE PA
500 PM EST SUN FEB 18 2018

Note: "fair" indicates few or no clouds below 12,000 feet with no
significant weather and/or obstructions to visibility.

* = STATION THAT DOES NOT REPORT PRECIPITATION /E.G. RAIN...SNOW...ETC/
    THUNDER OR FOG.

PAZ002>004-007>009-013>016-020>023-029>032-182300-
WESTERN PENNSYLVANIA

CITY           SKY/WX    TMP DP  RH WIND       PRES   REMARKS
ERIE           FAIR      34  21  59 N5        30.36R
MEADVILLE      FAIR      37  26  64 VRB7      30.32F
FRANKLIN*      FAIR      36  25  64 S14       30.33F
NEW CASTLE     FAIR      40  29  64 VRB7      30.35F
BEAVER COUNTY  CLOUDY    37  27  65 S8        30.35S
BUTLER*        FAIR      37  26  64 S7        30.36F
PITTSBURGH INT MOCLDY    39  26  59 S7        30.34F
PITTSBURGH     FAIR      38  24  57 S8        30.35F
INDIANA*       PTCLDY    36  28  75 SW7       30.40F
LATROBE        PTCLDY    37  28  70 SW6       30.38F
WASHINGTON CO* FAIR      40  28  62 VRB7      30.37F
$$

PAZ004>006-010>012-017>019-024>028-033>037-041-042-045-046-049>053-182300-
CENTRAL PENNSYLVANIA

CITY           SKY/WX    TMP DP  RH WIND       PRES   REMARKS
BRADFORD       FAIR      35  22  58 SW7       30.31R
DUBOIS         FAIR      33  23  66 SW5       30.35S
CLEARFIELD     FAIR      35  24  64 SW10      30.37R
JOHNSTOWN      FAIR      33  24  69 SW9       30.32S
ALTOONA        FAIR      36  25  64 S3        30.36S
STATE COLLEGE  CLEAR     37  25  60 SW7       30.38R
WILLIAMSPORT   MOCLDY    42  25  50 S6        30.39R
SELINSGROVE    FAIR      40  25  55 SW6       30.41R
FT INDIANTOWN  FAIR      42  28  58 SW5       30.40R
CAPITAL CITY   FAIR      44  26  49 NW6       30.41R
HARRISBURG     MOCLDY    41  26  55 NW7       30.41R
YORK           FAIR      43  28  55 W3        30.41R
$$

PAZ038>040-043-044-047-048-054-055-060>062-067>071-182300-
EASTERN PENNSYLVANIA

CITY           SKY/WX    TMP DP  RH WIND       PRES   REMARKS
SCRANTON       FAIR      40  22  48 CALM      30.37R
MOUNT POCONO   NOT AVBL
ALLENTOWN      FAIR      43  23  45 W6        30.40R
QUAKERTOWN*    CLEAR     41  23  48 VRB5      30.41R
READING        FAIR      42  26  53 W3        30.41R
LANCASTER      FAIR      42  28  57 NW3       30.41R
COATESVILLE    FAIR      41 N/A N/A NW7       30.42R
POTTSTOWN      FAIR      39  24  55 NW6       30.43R
BLUE BELL      FAIR      41  27  56 NW3       30.44R
DOYLESTOWN     FAIR      42  23  46 NW6       30.41R
WILLOW GROVE   NOT AVBL
NORTH PHILA    FAIR      45  26  47 CALM      30.44R
PHILADELPHIA   MOCLDY    45  24  43 NW9       30.43R
$$




USA.gov is the U.S. government's official web portal to all federal, state and local government web resources and services.